QPF
0.00 0.00 0.00 0.00 0.01 0.01 0.01 0.01 0.01 0.02 0.02 0.03 0.04 0.04 0.02 0.01 0.01 0.01 0.00 0.00 0.00 0.00 0.00 0.02 0.03 0.01 0.01 0.00 0.00 0.00 0.00 0.00 0.00 0.00 0.00 0.00 0.00 0.00 0.00 0.00 0.00 0.01 0.01 0.00 0.01 0.01 0.01 0.01 0.01
0.00 0.00 0.00 0.00 0.01 0.00 0.01 0.01 0.01 0.01 0.02 0.02 0.03 0.03 0.02 0.01 0.01 0.00 0.00 0.01 0.00 0.00 0.00 0.01 0.02 0.01 0.01 0.00 0.00 0.00 0.00 0.00 0.00 0.00 0.00 0.00 0.00 0.00 0.00 0.00 0.00 0.01 0.01 0.00 0.01 0.01 0.01 0.01 0.01
0.00 0.00 0.00 0.01 0.01 0.00 0.01 0.01 0.01 0.01 0.02 0.02 0.03 0.04 0.04 0.01 0.00 0.00 0.00 0.01 0.01 0.01 0.00 0.01 0.02 0.01 0.00 0.00 0.00 0.00 0.00 0.00 0.00 0.00 0.00 0.00 0.00 0.00 0.01 0.00 0.00 0.01 0.00 0.00 0.00 0.01 0.01 0.01 0.01
0.00 0.00 0.01 0.01 0.00 0.00 0.00 0.01 0.01 0.01 0.02 0.02 0.02 0.03 0.05 0.03 0.01 0.01 0.00 0.00 0.01 0.01 0.01 0.01 0.01 0.01 0.00 0.00 0.00 0.00 0.00 0.00 0.00 0.00 0.00 0.00 0.00 0.00 0.00 0.01 0.01 0.00 0.00 0.00 0.00 0.01 0.01 0.01 0.02
0.00 0.00 0.01 0.00 0.00 0.00 0.00 0.01 0.00 0.01 0.01 0.01 0.01 0.02 0.05 0.03 0.03 0.02 0.01 0.00 0.00 0.01 0.02 0.01 0.01 0.01 0.00 0.00 0.00 0.00 0.00 0.00 0.00 0.01 0.00 0.00 0.00 0.00 0.00 0.00 0.00 0.00 0.00 0.00 0.00 0.00 0.01 0.01 0.02
0.00 0.00 0.00 0.00 0.01 0.00 0.00 0.00 0.00 0.00 0.01 0.01 0.01 0.01 0.02 0.03 0.03 0.03 0.01 0.01 0.01 0.00 0.01 0.01 0.01 0.01 0.00 0.00 0.00 0.00 0.00 0.00 0.00 0.01 0.00 0.00 0.00 0.00 0.00 0.00 0.00 0.00 0.00 0.00 0.01 0.01 0.01 0.01 0.02
0.00 0.00 0.00 0.01 0.01 0.00 0.00 0.00 0.00 0.00 0.00 0.00 0.00 0.01 0.02 0.05 0.06 0.05 0.04 0.02 0.02 0.02 0.02 0.02 0.01 0.01 0.01 0.00 0.00 0.00 0.00 0.00 0.01 0.01 0.01 0.01 0.01 0.01 0.01 0.01 0.01 0.00 0.00 0.00 0.01 0.01 0.01 0.01 0.01
0.00 0.00 0.00 0.00 0.00 0.00 0.00 0.00 0.00 0.00 0.00 0.00 0.00 0.01 0.02 0.06 0.09 0.10 0.12 0.09 0.09 0.09 0.07 0.04 0.02 0.01 0.00 0.00 0.00 0.01 0.01 0.01 0.01 0.01 0.01 0.01 0.01 0.01 0.01 0.01 0.01 0.01 0.01 0.01 0.01 0.01 0.01 0.01 0.01
0.00 0.00 0.00 0.00 0.00 0.00 0.00 0.00 0.00 0.00 0.00 0.00 0.00 0.00 0.02 0.07 0.13 0.12 0.12 0.15 0.16 0.16 0.19 0.11 0.05 0.02 0.01 0.01 0.01 0.01 0.01 0.01 0.01 0.01 0.01 0.01 0.01 0.01 0.01 0.01 0.01 0.01 0.01 0.01 0.01 0.01 0.01 0.01 0.01
0.00 0.00 0.00 0.00 0.00 0.00 0.00 0.00 0.00 0.00 0.00 0.00 0.00 0.01 0.04 0.07 0.15 0.13 0.10 0.11 0.12 0.10 0.12 0.13 0.08 0.05 0.02 0.02 0.01 0.01 0.01 0.01 0.01 0.00 0.01 0.01 0.00 0.01 0.01 0.02 0.02 0.02 0.01 0.01 0.02 0.03 0.03 0.02 0.01
0.00 0.00 0.00 0.00 0.00 0.00 0.00 0.00 0.00 0.00 0.00 0.00 0.01 0.02 0.04 0.08 0.13 0.13 0.15 0.16 0.14 0.10 0.08 0.08 0.07 0.07 0.04 0.03 0.02 0.01 0.00 0.00 0.00 0.00 0.01 0.01 0.00 0.01 0.01 0.01 0.02 0.02 0.02 0.02 0.03 0.03 0.03 0.02 0.02
0.00 0.00 0.00 0.00 0.00 0.00 0.00 0.00 0.00 0.00 0.00 0.00 0.01 0.01 0.03 0.05 0.10 0.12 0.19 0.23 0.18 0.12 0.10 0.08 0.07 0.06 0.05 0.03 0.03 0.02 0.01 0.00 0.00 0.00 0.01 0.01 0.01 0.01 0.01 0.01 0.02 0.02 0.02 0.01 0.02 0.02 0.02 0.03 0.03
0.00 0.00 0.00 0.00 0.00 0.00 0.00 0.00 0.00 0.00 0.00 0.00 0.00 0.01 0.03 0.03 0.07 0.12 0.15 0.21 0.22 0.23 0.19 0.14 0.12 0.08 0.06 0.05 0.04 0.02 0.01 0.01 0.01 0.00 0.00 0.01 0.01 0.02 0.02 0.02 0.02 0.02 0.02 0.02 0.01 0.01 0.02 0.03 0.04
0.00 0.00 0.00 0.00 0.00 0.00 0.00 0.00 0.00 0.00 0.00 0.00 0.01 0.04 0.06 0.08 0.10 0.16 0.21 0.28 0.34 0.39 0.31 0.23 0.16 0.11 0.09 0.06 0.04 0.03 0.02 0.02 0.01 0.01 0.01 0.01 0.01 0.01 0.01 0.01 0.01 0.01 0.02 0.02 0.02 0.01 0.02 0.03 0.05
0.00 0.00 0.00 0.00 0.00 0.00 0.00 0.00 0.00 0.00 0.00 0.01 0.04 0.07 0.09 0.14 0.17 0.20 0.21 0.26 0.32 0.31 0.30 0.29 0.24 0.15 0.11 0.09 0.06 0.05 0.03 0.02 0.02 0.02 0.02 0.02 0.02 0.01 0.01 0.01 0.01 0.01 0.01 0.01 0.01 0.01 0.01 0.02 0.02
0.00 0.00 0.00 0.00 0.00 0.00 0.00 0.00 0.00 0.00 0.01 0.03 0.05 0.08 0.10 0.16 0.20 0.24 0.24 0.24 0.30 0.31 0.27 0.26 0.25 0.20 0.16 0.14 0.10 0.08 0.05 0.03 0.02 0.02 0.02 0.02 0.01 0.00 0.00 0.00 0.00 0.00 0.00 0.01 0.01 0.01 0.01 0.01 0.01
0.00 0.00 0.00 0.00 0.00 0.00 0.00 0.00 0.00 0.01 0.02 0.03 0.04 0.06 0.09 0.16 0.25 0.31 0.35 0.32 0.34 0.38 0.31 0.28 0.25 0.23 0.20 0.16 0.13 0.11 0.08 0.05 0.04 0.02 0.01 0.01 0.00 0.00 0.00 0.00 0.00 0.00 0.00 0.00 0.01 0.00 0.00 0.01 0.01
0.00 0.00 0.00 0.00 0.00 0.00 0.00 0.00 0.00 0.01 0.01 0.02 0.03 0.06 0.08 0.13 0.21 0.26 0.27 0.33 0.38 0.47 0.42 0.34 0.33 0.29 0.23 0.20 0.16 0.13 0.10 0.07 0.05 0.03 0.02 0.01 0.01 0.00 0.00 0.00 0.00 0.00 0.00 0.00 0.00 0.00 0.00 0.00 0.00
0.00 0.00 0.00 0.00 0.00 0.00 0.00 0.00 0.00 0.00 0.01 0.01 0.02 0.03 0.04 0.07 0.11 0.22 0.22 0.33 0.40 0.49 0.49 0.38 0.32 0.29 0.25 0.20 0.16 0.13 0.09 0.07 0.05 0.04 0.02 0.01 0.00 0.00 0.00 0.00 0.00 0.00 0.00 0.00 0.00 0.00 0.00 0.00 0.00
0.00 0.00 0.00 0.00 0.00 0.00 0.00 0.00 0.00 0.00 0.00 0.00 0.00 0.01 0.02 0.03 0.09 0.18 0.21 0.28 0.35 0.38 0.40 0.34 0.29 0.25 0.20 0.17 0.15 0.13 0.11 0.08 0.06 0.04 0.02 0.00 0.00 0.00 0.00 0.00 0.00 0.00 0.00 0.00 0.00 0.00 0.00 0.00 0.00
0.00 0.00 0.00 0.00 0.00 0.00 0.00 0.00 0.00 0.00 0.00 0.01 0.00 0.01 0.01 0.02 0.05 0.08 0.13 0.20 0.24 0.24 0.26 0.28 0.29 0.26 0.19 0.17 0.16 0.12 0.09 0.07 0.05 0.02 0.01 0.00 0.00 0.00 0.00 0.00 0.00 0.00 0.00 0.00 0.00 0.00 0.00 0.00 0.00
0.00 0.00 0.00 0.00 0.00 0.00 0.00 0.00 0.00 0.00 0.00 0.01 0.01 0.01 0.01 0.01 0.02 0.05 0.12 0.15 0.21 0.20 0.17 0.21 0.27 0.26 0.22 0.19 0.13 0.08 0.05 0.04 0.03 0.01 0.01 0.00 0.00 0.00 0.00 0.00 0.00 0.00 0.00 0.00 0.00 0.00 0.00 0.00 0.00
0.00 0.00 0.00 0.00 0.00 0.00 0.00 0.00 0.00 0.00 0.00 0.00 0.00 0.00 0.01 0.01 0.01 0.02 0.07 0.11 0.13 0.16 0.15 0.16 0.19 0.20 0.18 0.17 0.14 0.11 0.07 0.05 0.03 0.01 0.01 0.00 0.00 0.00 0.00 0.00 0.00 0.00 0.00 0.00 0.00 0.00 0.00 0.00 0.00
0.00 0.00 0.00 0.00 0.00 0.00 0.00 0.00 0.00 0.00 0.00 0.00 0.00 0.00 0.01 0.01 0.01 0.03 0.04 0.06 0.08 0.12 0.14 0.15 0.16 0.15 0.14 0.16 0.15 0.11 0.07 0.05 0.03 0.01 0.00 0.00 0.00 0.00 0.00 0.00 0.00 0.00 0.00 0.00 0.00 0.00 0.00 0.00 0.00
0.00 0.00 0.00 0.00 0.00 0.00 0.00 0.00 0.00 0.00 0.00 0.00 0.00 0.00 0.00 0.01 0.02 0.04 0.05 0.06 0.05 0.09 0.11 0.11 0.13 0.13 0.14 0.14 0.11 0.08 0.06 0.05 0.03 0.01 0.00 0.00 0.00 0.00 0.00 0.00 0.00 0.00 0.00 0.00 0.00 0.00 0.00 0.00 0.00
0.00 0.00 0.01 0.01 0.00 0.00 0.00 0.00 0.00 0.00 0.00 0.00 0.00 0.00 0.01 0.00 0.01 0.02 0.04 0.05 0.04 0.06 0.06 0.07 0.09 0.10 0.09 0.08 0.07 0.06 0.05 0.04 0.02 0.01 0.00 0.00 0.00 0.00 0.00 0.00 0.00 0.00 0.00 0.00 0.00 0.00 0.00 0.00 0.00
0.00 0.00 0.01 0.01 0.01 0.00 0.00 0.00 0.00 0.00 0.00 0.00 0.00 0.01 0.01 0.01 0.00 0.02 0.03 0.03 0.04 0.05 0.05 0.06 0.07 0.08 0.07 0.06 0.06 0.06 0.04 0.03 0.01 0.01 0.01 0.00 0.00 0.00 0.00 0.00 0.00 0.00 0.00 0.00 0.00 0.00 0.00 0.00 0.00
0.00 0.00 0.00 0.01 0.01 0.01 0.00 0.00 0.00 0.00 0.00 0.00 0.00 0.00 0.00 0.01 0.00 0.01 0.02 0.03 0.03 0.03 0.04 0.06 0.06 0.06 0.08 0.07 0.06 0.04 0.03 0.03 0.02 0.01 0.01 0.01 0.00 0.00 0.00 0.00 0.00 0.00 0.00 0.00 0.00 0.00 0.00 0.00 0.00
0.00 0.00 0.00 0.01 0.01 0.01 0.01 0.00 0.00 0.00 0.00 0.00 0.00 0.00 0.00 0.00 0.01 0.00 0.01 0.02 0.01 0.02 0.02 0.04 0.05 0.06 0.07 0.06 0.05 0.04 0.03 0.03 0.02 0.02 0.01 0.01 0.00 0.00 0.00 0.00 0.00 0.00 0.00 0.00 0.00 0.00 0.00 0.00 0.00
0.00 0.00 0.00 0.00 0.01 0.01 0.01 0.00 0.00 0.00 0.00 0.00 0.00 0.00 0.00 0.00 0.01 0.01 0.01 0.01 0.01 0.01 0.02 0.04 0.04 0.04 0.04 0.05 0.05 0.03 0.03 0.04 0.03 0.02 0.02 0.02 0.01 0.01 0.01 0.00 0.00 0.00 0.00 0.00 0.00 0.00 0.00 0.00 0.00
MSLP
1009.37 1010.37 1011.49 1012.55 1013.39 1013.88 1013.99 1013.75 1013.26 1012.67 1012.12 1011.72 1011.53 1011.52 1011.62 1011.75 1011.80 1011.72 1011.50 1011.19 1010.86 1010.61 1010.52 1010.62 1010.92 1011.36 1011.87 1012.36 1012.78 1013.08 1013.28 1013.41 1013.52 1013.66 1013.85 1014.11 1014.42 1014.73 1015.01 1015.23 1015.36 1015.43 1015.43 1015.42 1015.42 1015.45 1015.51 1015.62 1015.75
1009.77 1010.87 1012.01 1013.00 1013.69 1013.98 1013.85 1013.38 1012.68 1011.92 1011.25 1010.79 1010.56 1010.56 1010.69 1010.87 1010.99 1010.99 1010.87 1010.66 1010.46 1010.33 1010.35 1010.56 1010.95 1011.46 1012.02 1012.55 1013.00 1013.33 1013.55 1013.69 1013.82 1013.96 1014.15 1014.40 1014.68 1014.96 1015.20 1015.38 1015.49 1015.53 1015.53 1015.51 1015.51 1015.55 1015.62 1015.73 1015.87
1010.31 1011.46 1012.55 1013.41 1013.91 1013.96 1013.60 1012.92 1012.05 1011.17 1010.44 1009.95 1009.73 1009.75 1009.92 1010.14 1010.31 1010.37 1010.33 1010.22 1010.12 1010.10 1010.23 1010.54 1011.01 1011.57 1012.17 1012.73 1013.19 1013.53 1013.76 1013.93 1014.06 1014.22 1014.41 1014.64 1014.89 1015.14 1015.35 1015.50 1015.58 1015.61 1015.61 1015.60 1015.60 1015.65 1015.73 1015.84 1015.99
1010.97 1012.10 1013.09 1013.77 1014.04 1013.86 1013.29 1012.43 1011.45 1010.52 1009.79 1009.32 1009.14 1009.19 1009.39 1009.64 1009.83 1009.94 1009.95 1009.91 1009.90 1009.98 1010.19 1010.57 1011.09 1011.69 1012.30 1012.86 1013.32 1013.66 1013.91 1014.09 1014.25 1014.42 1014.62 1014.84 1015.08 1015.31 1015.50 1015.62 1015.69 1015.72 1015.72 1015.72 1015.74 1015.79 1015.88 1016.00 1016.14
1011.68 1012.73 1013.55 1014.02 1014.05 1013.66 1012.92 1011.96 1010.94 1010.02 1009.34 1008.93 1008.81 1008.91 1009.13 1009.39 1009.60 1009.71 1009.76 1009.77 1009.82 1009.96 1010.24 1010.66 1011.20 1011.81 1012.40 1012.94 1013.38 1013.72 1013.98 1014.18 1014.37 1014.57 1014.79 1015.03 1015.28 1015.50 1015.68 1015.80 1015.87 1015.90 1015.92 1015.93 1015.96 1016.02 1016.11 1016.22 1016.36
1012.34 1013.24 1013.86 1014.09 1013.91 1013.34 1012.48 1011.48 1010.49 1009.66 1009.07 1008.77 1008.73 1008.88 1009.12 1009.37 1009.57 1009.69 1009.74 1009.78 1009.87 1010.06 1010.38 1010.82 1011.35 1011.93 1012.49 1012.98 1013.39 1013.72 1013.98 1014.21 1014.44 1014.68 1014.95 1015.23 1015.50 1015.73 1015.92 1016.05 1016.12 1016.17 1016.19 1016.22 1016.26 1016.32 1016.40 1016.50 1016.62
1012.83 1013.55 1013.93 1013.93 1013.54 1012.84 1011.93 1010.96 1010.06 1009.36 1008.92 1008.75 1008.80 1009.00 1009.26 1009.50 1009.68 1009.79 1009.85 1009.92 1010.04 1010.26 1010.59 1011.03 1011.54 1012.07 1012.57 1013.00 1013.37 1013.68 1013.95 1014.21 1014.48 1014.79 1015.11 1015.43 1015.73 1015.99 1016.19 1016.33 1016.42 1016.47 1016.51 1016.55 1016.59 1016.65 1016.71 1016.78 1016.88
1013.07 1013.56 1013.70 1013.48 1012.94 1012.15 1011.25 1010.35 1009.59 1009.06 1008.78 1008.75 1008.89 1009.15 1009.42 1009.66 1009.83 1009.94 1010.02 1010.11 1010.27 1010.52 1010.86 1011.29 1011.75 1012.22 1012.65 1013.03 1013.35 1013.64 1013.91 1014.20 1014.52 1014.88 1015.26 1015.62 1015.96 1016.24 1016.45 1016.60 1016.69 1016.75 1016.80 1016.84 1016.89 1016.93 1016.98 1017.03 1017.10
1013.00 1013.27 1013.18 1012.78 1012.11 1011.29 1010.43 1009.65 1009.04 1008.69 1008.57 1008.67 1008.90 1009.21 1009.51 1009.75 1009.94 1010.06 1010.17 1010.31 1010.51 1010.79 1011.15 1011.56 1011.99 1012.40 1012.76 1013.07 1013.35 1013.61 1013.89 1014.20 1014.57 1014.97 1015.39 1015.79 1016.14 1016.43 1016.65 1016.79 1016.89 1016.95 1017.00 1017.05 1017.10 1017.14 1017.18 1017.21 1017.25
1012.67 1012.71 1012.44 1011.88 1011.14 1010.31 1009.52 1008.86 1008.41 1008.22 1008.24 1008.45 1008.76 1009.11 1009.44 1009.71 1009.92 1010.09 1010.26 1010.46 1010.72 1011.05 1011.43 1011.83 1012.23 1012.58 1012.89 1013.15 1013.38 1013.62 1013.90 1014.23 1014.62 1015.05 1015.49 1015.90 1016.26 1016.55 1016.75 1016.89 1016.98 1017.04 1017.09 1017.15 1017.20 1017.25 1017.29 1017.32 1017.35
1012.16 1012.03 1011.59 1010.93 1010.15 1009.34 1008.62 1008.08 1007.76 1007.69 1007.82 1008.11 1008.47 1008.86 1009.21 1009.52 1009.78 1010.02 1010.26 1010.54 1010.88 1011.26 1011.67 1012.07 1012.44 1012.76 1013.02 1013.24 1013.45 1013.67 1013.95 1014.28 1014.68 1015.11 1015.55 1015.95 1016.30 1016.57 1016.75 1016.88 1016.96 1017.02 1017.08 1017.15 1017.23 1017.31 1017.37 1017.41 1017.45
1011.63 1011.36 1010.82 1010.09 1009.29 1008.52 1007.87 1007.42 1007.19 1007.19 1007.38 1007.70 1008.09 1008.49 1008.87 1009.22 1009.54 1009.85 1010.18 1010.55 1010.96 1011.39 1011.83 1012.25 1012.62 1012.92 1013.16 1013.36 1013.55 1013.77 1014.03 1014.36 1014.75 1015.16 1015.58 1015.95 1016.27 1016.51 1016.68 1016.79 1016.88 1016.95 1017.04 1017.14 1017.25 1017.36 1017.45 1017.53 1017.59
1011.23 1010.87 1010.26 1009.51 1008.72 1007.99 1007.39 1006.99 1006.81 1006.83 1007.03 1007.34 1007.71 1008.11 1008.51 1008.89 1009.26 1009.65 1010.06 1010.50 1010.97 1011.45 1011.92 1012.36 1012.73 1013.03 1013.28 1013.49 1013.68 1013.90 1014.17 1014.48 1014.84 1015.22 1015.59 1015.93 1016.21 1016.43 1016.59 1016.70 1016.80 1016.90 1017.02 1017.16 1017.32 1017.48 1017.62 1017.74 1017.83
1011.08 1010.67 1010.04 1009.30 1008.54 1007.85 1007.29 1006.90 1006.71 1006.71 1006.86 1007.12 1007.45 1007.82 1008.21 1008.61 1009.03 1009.46 1009.93 1010.42 1010.93 1011.44 1011.93 1012.38 1012.77 1013.10 1013.38 1013.62 1013.85 1014.08 1014.35 1014.65 1014.97 1015.31 1015.63 1015.92 1016.17 1016.37 1016.53 1016.66 1016.79 1016.93 1017.10 1017.29 1017.50 1017.71 1017.90 1018.06 1018.19
1011.22 1010.79 1010.18 1009.47 1008.75 1008.10 1007.55 1007.16 1006.93 1006.86 1006.93 1007.11 1007.37 1007.69 1008.05 1008.45 1008.89 1009.35 1009.83 1010.34 1010.86 1011.37 1011.87 1012.33 1012.75 1013.13 1013.46 1013.75 1014.03 1014.31 1014.59 1014.87 1015.16 1015.45 1015.72 1015.96 1016.18 1016.37 1016.55 1016.71 1016.89 1017.09 1017.31 1017.55 1017.80 1018.05 1018.28 1018.48 1018.64
1011.59 1011.16 1010.59 1009.94 1009.28 1008.67 1008.14 1007.73 1007.44 1007.28 1007.24 1007.32 1007.49 1007.74 1008.06 1008.44 1008.86 1009.31 1009.79 1010.27 1010.77 1011.26 1011.75 1012.22 1012.68 1013.11 1013.51 1013.90 1014.25 1014.57 1014.88 1015.15 1015.41 1015.64 1015.86 1016.06 1016.26 1016.45 1016.65 1016.87 1017.10 1017.35 1017.62 1017.91 1018.19 1018.47 1018.72 1018.94 1019.12
1012.05 1011.66 1011.15 1010.59 1010.01 1009.46 1008.95 1008.51 1008.15 1007.90 1007.75 1007.71 1007.78 1007.95 1008.21 1008.55 1008.93 1009.35 1009.78 1010.22 1010.66 1011.12 1011.58 1012.06 1012.56 1013.06 1013.56 1014.04 1014.48 1014.87 1015.21 1015.48 1015.71 1015.89 1016.06 1016.22 1016.40 1016.60 1016.83 1017.10 1017.39 1017.69 1018.00 1018.31 1018.61 1018.89 1019.15 1019.37 1019.55
1012.46 1012.13 1011.71 1011.26 1010.79 1010.32 1009.84 1009.39 1008.97 1008.62 1008.35 1008.20 1008.16 1008.25 1008.45 1008.73 1009.06 1009.43 1009.80 1010.17 1010.55 1010.95 1011.39 1011.87 1012.41 1012.99 1013.59 1014.17 1014.71 1015.18 1015.55 1015.83 1016.03 1016.17 1016.29 1016.42 1016.58 1016.79 1017.06 1017.36 1017.70 1018.04 1018.38 1018.70 1018.99 1019.25 1019.48 1019.69 1019.87
1012.68 1012.43 1012.15 1011.85 1011.52 1011.15 1010.73 1010.27 1009.80 1009.35 1008.97 1008.70 1008.56 1008.56 1008.69 1008.91 1009.19 1009.50 1009.81 1010.12 1010.43 1010.77 1011.18 1011.66 1012.24 1012.89 1013.59 1014.28 1014.92 1015.46 1015.88 1016.16 1016.34 1016.45 1016.53 1016.62 1016.77 1016.99 1017.28 1017.63 1018.00 1018.37 1018.71 1019.02 1019.28 1019.51 1019.71 1019.89 1020.05
1012.63 1012.51 1012.41 1012.29 1012.14 1011.89 1011.55 1011.10 1010.58 1010.04 1009.54 1009.15 1008.91 1008.82 1008.88 1009.05 1009.29 1009.55 1009.80 1010.05 1010.31 1010.60 1010.98 1011.46 1012.07 1012.79 1013.57 1014.35 1015.08 1015.68 1016.15 1016.45 1016.61 1016.69 1016.74 1016.81 1016.95 1017.18 1017.49 1017.86 1018.26 1018.64 1018.98 1019.26 1019.48 1019.66 1019.81 1019.96 1020.11
1012.33 1012.39 1012.51 1012.61 1012.65 1012.55 1012.29 1011.85 1011.27 1010.64 1010.02 1009.51 1009.15 1008.98 1008.98 1009.11 1009.32 1009.56 1009.78 1009.99 1010.21 1010.46 1010.81 1011.29 1011.92 1012.68 1013.52 1014.37 1015.16 1015.83 1016.33 1016.65 1016.82 1016.88 1016.91 1016.98 1017.11 1017.35 1017.67 1018.06 1018.47 1018.86 1019.19 1019.44 1019.62 1019.75 1019.86 1019.97 1020.11
1011.89 1012.17 1012.53 1012.88 1013.12 1013.17 1012.97 1012.53 1011.90 1011.15 1010.41 1009.77 1009.30 1009.05 1009.00 1009.11 1009.31 1009.55 1009.77 1009.97 1010.17 1010.40 1010.73 1011.19 1011.81 1012.58 1013.45 1014.34 1015.17 1015.88 1016.41 1016.75 1016.93 1017.01 1017.04 1017.11 1017.25 1017.50 1017.84 1018.25 1018.67 1019.05 1019.37 1019.59 1019.74 1019.82 1019.89 1019.97 1020.09
1011.44 1011.96 1012.58 1013.16 1013.60 1013.77 1013.63 1013.18 1012.46 1011.59 1010.72 1009.95 1009.38 1009.06 1008.97 1009.07 1009.30 1009.56 1009.81 1010.03 1010.22 1010.44 1010.74 1011.17 1011.77 1012.52 1013.38 1014.27 1015.12 1015.84 1016.40 1016.77 1016.97 1017.07 1017.12 1017.21 1017.37 1017.64 1018.00 1018.42 1018.85 1019.24 1019.54 1019.75 1019.87 1019.92 1019.96 1020.02 1020.12
1011.10 1011.86 1012.72 1013.51 1014.11 1014.38 1014.26 1013.76 1012.95 1011.96 1010.95 1010.06 1009.40 1009.03 1008.93 1009.05 1009.32 1009.64 1009.94 1010.19 1010.40 1010.61 1010.89 1011.27 1011.82 1012.51 1013.32 1014.18 1015.01 1015.74 1016.31 1016.70 1016.94 1017.07 1017.16 1017.28 1017.47 1017.77 1018.15 1018.59 1019.03 1019.42 1019.72 1019.92 1020.02 1020.06 1020.08 1020.11 1020.21
1010.94 1011.90 1012.95 1013.91 1014.60 1014.92 1014.79 1014.22 1013.32 1012.21 1011.09 1010.11 1009.39 1008.99 1008.90 1009.07 1009.40 1009.80 1010.17 1010.47 1010.71 1010.92 1011.16 1011.49 1011.96 1012.57 1013.31 1014.11 1014.89 1015.60 1016.17 1016.58 1016.85 1017.02 1017.15 1017.31 1017.54 1017.86 1018.26 1018.71 1019.16 1019.55 1019.86 1020.06 1020.16 1020.20 1020.21 1020.23 1020.31
1010.93 1012.04 1013.21 1014.25 1014.99 1015.30 1015.12 1014.49 1013.49 1012.30 1011.10 1010.07 1009.33 1008.94 1008.90 1009.14 1009.55 1010.03 1010.48 1010.85 1011.12 1011.33 1011.53 1011.80 1012.18 1012.70 1013.34 1014.05 1014.77 1015.43 1015.99 1016.41 1016.71 1016.92 1017.09 1017.28 1017.54 1017.87 1018.29 1018.74 1019.19 1019.59 1019.90 1020.11 1020.23 1020.27 1020.29 1020.31 1020.38
1011.01 1012.19 1013.39 1014.43 1015.14 1015.39 1015.15 1014.44 1013.39 1012.15 1010.93 1009.90 1009.19 1008.86 1008.89 1009.22 1009.73 1010.31 1010.83 1011.26 1011.56 1011.77 1011.95 1012.15 1012.45 1012.87 1013.40 1014.02 1014.66 1015.27 1015.80 1016.22 1016.52 1016.75 1016.95 1017.16 1017.43 1017.77 1018.18 1018.62 1019.07 1019.47 1019.79 1020.02 1020.16 1020.23 1020.26 1020.29 1020.35
1011.07 1012.22 1013.36 1014.32 1014.93 1015.10 1014.78 1014.02 1012.94 1011.72 1010.54 1009.58 1008.96 1008.72 1008.85 1009.28 1009.89 1010.54 1011.14 1011.62 1011.95 1012.17 1012.32 1012.48 1012.70 1013.03 1013.47 1014.00 1014.56 1015.11 1015.59 1015.99 1016.29 1016.52 1016.72 1016.94 1017.19 1017.52 1017.90 1018.33 1018.76 1019.16 1019.49 1019.74 1019.91 1020.01 1020.07 1020.12 1020.18
1011.02 1012.05 1013.05 1013.85 1014.32 1014.37 1013.98 1013.20 1012.15 1011.00 1009.93 1009.09 1008.60 1008.49 1008.73 1009.26 1009.94 1010.67 1011.32 1011.83 1012.19 1012.42 1012.56 1012.69 1012.87 1013.14 1013.51 1013.96 1014.45 1014.94 1015.37 1015.73 1016.01 1016.22 1016.40 1016.59 1016.82 1017.11 1017.46 1017.85 1018.26 1018.65 1018.99 1019.27 1019.47 1019.61 1019.71 1019.79 1019.88
1010.82 1011.67 1012.46 1013.06 1013.36 1013.28 1012.83 1012.06 1011.08 1010.06 1009.14 1008.47 1008.13 1008.15 1008.51 1009.11 1009.85 1010.61 1011.29 1011.82 1012.20 1012.45 1012.60 1012.73 1012.90 1013.15 1013.48 1013.88 1014.32 1014.75 1015.14 1015.46 1015.70 1015.87 1016.02 1016.17 1016.35 1016.59 1016.90 1017.25 1017.63 1018.01 1018.36 1018.67 1018.91 1019.10 1019.25 1019.38 1019.49
Thickness
5799 5796 5792 5781 5762 5746 5746 5759 5769 5771 5773 5783 5785 5780 5774 5769 5762 5761 5783 5792 5789 5783 5779 5776 5773 5771 5770 5768 5767 5766 5765 5764 5763 5763 5762 5761 5760 5759 5758 5757 5756 5755 5754 5753 5752 5751 5750 5749 5748
5799 5794 5785 5771 5750 5736 5746 5766 5769 5775 5782 5786 5785 5781 5775 5774 5780 5779 5783 5787 5787 5782 5778 5775 5772 5770 5768 5766 5765 5764 5763 5762 5761 5760 5760 5759 5758 5757 5756 5754 5753 5752 5752 5751 5750 5749 5748 5747 5746
5798 5794 5774 5759 5747 5741 5754 5773 5776 5783 5788 5785 5779 5779 5776 5774 5780 5781 5785 5786 5783 5779 5776 5773 5771 5768 5766 5764 5763 5762 5761 5760 5759 5758 5757 5756 5755 5754 5753 5752 5750 5750 5749 5749 5748 5747 5746 5745 5745
5794 5781 5769 5753 5749 5760 5770 5779 5784 5780 5782 5784 5778 5771 5777 5785 5785 5786 5787 5784 5778 5775 5773 5771 5769 5767 5764 5762 5761 5759 5758 5757 5757 5756 5755 5754 5752 5751 5750 5749 5748 5747 5746 5746 5745 5744 5744 5743 5743
5789 5770 5754 5743 5752 5770 5784 5789 5788 5779 5777 5780 5777 5768 5770 5782 5789 5786 5784 5780 5775 5772 5770 5769 5767 5764 5762 5760 5759 5757 5756 5755 5754 5753 5752 5751 5750 5748 5747 5746 5745 5744 5744 5743 5743 5742 5741 5741 5741
5775 5762 5743 5738 5755 5777 5788 5794 5789 5781 5778 5779 5774 5767 5767 5778 5781 5781 5780 5776 5774 5770 5768 5766 5764 5762 5760 5758 5756 5755 5754 5753 5752 5750 5750 5749 5747 5746 5745 5744 5742 5741 5741 5741 5740 5739 5739 5738 5738
5769 5754 5745 5749 5755 5771 5787 5794 5786 5779 5776 5778 5779 5764 5764 5770 5775 5777 5774 5771 5769 5767 5765 5763 5761 5759 5758 5756 5755 5753 5752 5751 5749 5748 5747 5746 5745 5744 5743 5741 5740 5739 5738 5738 5738 5737 5736 5736 5735
5778 5757 5750 5749 5758 5769 5788 5791 5791 5784 5779 5788 5782 5765 5761 5768 5772 5771 5767 5764 5763 5762 5761 5760 5758 5757 5755 5754 5752 5751 5750 5748 5747 5746 5745 5744 5743 5741 5740 5739 5737 5736 5736 5736 5735 5734 5734 5733 5733
5781 5752 5743 5755 5766 5776 5789 5787 5790 5794 5786 5783 5783 5778 5777 5774 5769 5763 5758 5756 5755 5756 5756 5756 5755 5754 5752 5751 5750 5749 5748 5746 5745 5744 5743 5742 5741 5739 5738 5737 5735 5734 5734 5733 5733 5732 5731 5730 5730
5771 5748 5759 5776 5784 5786 5790 5788 5787 5783 5776 5775 5775 5776 5777 5771 5764 5758 5755 5752 5751 5751 5752 5752 5751 5751 5750 5749 5747 5747 5746 5744 5743 5742 5741 5739 5738 5737 5736 5735 5734 5733 5732 5732 5731 5730 5729 5728 5727
5773 5764 5777 5788 5795 5795 5790 5789 5791 5779 5769 5775 5774 5772 5769 5765 5759 5755 5753 5752 5750 5750 5748 5748 5747 5747 5747 5747 5745 5743 5743 5742 5741 5739 5738 5737 5736 5735 5733 5733 5732 5731 5730 5730 5729 5728 5727 5726 5726
5776 5781 5788 5794 5801 5797 5793 5791 5786 5782 5784 5792 5787 5779 5770 5762 5757 5754 5751 5748 5747 5745 5744 5744 5744 5744 5743 5743 5743 5741 5739 5739 5738 5737 5736 5735 5733 5732 5731 5730 5729 5729 5728 5728 5727 5726 5725 5725 5724
5780 5786 5795 5799 5799 5798 5796 5789 5787 5785 5792 5792 5784 5774 5768 5762 5756 5752 5749 5745 5742 5740 5741 5741 5740 5740 5739 5739 5739 5738 5737 5736 5735 5735 5734 5733 5732 5731 5730 5729 5727 5727 5726 5726 5725 5724 5723 5723 5722
5787 5789 5793 5797 5798 5799 5792 5788 5785 5785 5790 5784 5777 5768 5765 5760 5753 5747 5743 5739 5737 5737 5738 5737 5737 5737 5736 5735 5735 5735 5735 5734 5733 5732 5732 5731 5730 5729 5728 5727 5726 5725 5724 5724 5723 5722 5722 5721 5721
5789 5782 5786 5793 5795 5795 5789 5778 5780 5787 5785 5776 5770 5764 5759 5755 5750 5745 5742 5738 5736 5735 5735 5734 5734 5734 5733 5733 5732 5732 5732 5731 5731 5730 5730 5729 5729 5728 5727 5726 5725 5724 5723 5722 5721 5721 5720 5719 5719
5780 5769 5763 5782 5790 5791 5779 5763 5781 5784 5778 5768 5764 5760 5755 5750 5746 5744 5741 5737 5734 5732 5731 5731 5731 5730 5730 5730 5729 5730 5729 5729 5728 5728 5728 5727 5727 5727 5725 5724 5723 5722 5722 5721 5720 5719 5718 5717 5716
5755 5746 5752 5769 5786 5784 5774 5763 5776 5778 5774 5764 5759 5756 5751 5746 5742 5739 5738 5735 5732 5730 5727 5727 5727 5726 5726 5726 5725 5726 5726 5726 5726 5726 5726 5726 5725 5725 5724 5723 5722 5721 5720 5719 5719 5717 5716 5714 5713
5744 5746 5750 5757 5775 5776 5767 5764 5770 5771 5768 5761 5756 5752 5747 5743 5740 5737 5734 5732 5729 5727 5725 5724 5724 5723 5722 5721 5720 5720 5721 5722 5723 5723 5724 5724 5723 5722 5722 5721 5720 5719 5719 5717 5716 5715 5714 5713 5712
5755 5749 5746 5760 5776 5769 5763 5761 5764 5765 5762 5756 5751 5747 5744 5742 5740 5736 5732 5729 5726 5723 5721 5721 5721 5720 5719 5718 5717 5715 5715 5717 5718 5720 5721 5721 5721 5720 5720 5719 5718 5718 5717 5716 5715 5714 5712 5711 5711
5754 5746 5747 5762 5774 5767 5758 5757 5762 5761 5758 5755 5751 5746 5743 5739 5736 5733 5730 5728 5725 5723 5721 5719 5718 5718 5718 5718 5717 5717 5716 5715 5716 5716 5717 5718 5719 5719 5718 5718 5717 5716 5715 5714 5714 5713 5710 5709 5709
5754 5749 5751 5754 5763 5762 5753 5748 5753 5757 5758 5755 5752 5749 5746 5741 5736 5733 5730 5728 5726 5723 5722 5720 5718 5717 5717 5717 5715 5714 5712 5712 5711 5712 5713 5715 5716 5717 5717 5716 5716 5715 5715 5714 5713 5713 5711 5708 5707
5747 5764 5763 5758 5746 5734 5739 5722 5743 5747 5747 5750 5748 5747 5745 5742 5738 5734 5730 5728 5726 5724 5722 5719 5717 5715 5714 5715 5715 5714 5711 5709 5710 5711 5711 5713 5714 5714 5715 5715 5714 5714 5713 5713 5712 5712 5711 5710 5707
5761 5768 5760 5752 5741 5730 5730 5722 5731 5743 5741 5745 5747 5747 5745 5743 5740 5735 5732 5730 5727 5725 5722 5718 5715 5713 5713 5713 5713 5713 5710 5710 5709 5709 5709 5710 5710 5711 5712 5712 5712 5712 5712 5711 5711 5711 5711 5710 5708
5771 5760 5748 5734 5725 5716 5725 5719 5723 5736 5745 5748 5749 5748 5747 5744 5740 5737 5733 5730 5726 5724 5721 5717 5714 5712 5711 5711 5711 5711 5710 5709 5707 5707 5707 5707 5707 5708 5709 5710 5710 5710 5710 5710 5709 5709 5709 5709 5708
5761 5736 5714 5713 5703 5709 5722 5717 5724 5750 5755 5754 5751 5749 5748 5745 5741 5736 5732 5729 5725 5722 5719 5717 5714 5712 5711 5710 5709 5710 5710 5709 5708 5708 5707 5706 5706 5706 5707 5709 5709 5709 5708 5708 5707 5707 5707 5707 5706
5751 5739 5713 5703 5700 5708 5720 5717 5739 5759 5760 5759 5756 5752 5749 5745 5742 5738 5734 5731 5727 5723 5720 5718 5715 5713 5712 5711 5710 5710 5710 5709 5708 5708 5707 5707 5707 5708 5708 5708 5707 5707 5707 5706 5705 5705 5704 5704 5704
5747 5737 5739 5715 5709 5704 5712 5726 5746 5759 5757 5755 5753 5750 5748 5745 5743 5739 5736 5733 5729 5725 5722 5719 5716 5714 5713 5711 5710 5709 5709 5709 5708 5708 5708 5707 5707 5707 5707 5707 5706 5706 5705 5704 5703 5702 5702 5701 5701
5762 5744 5723 5711 5700 5697 5711 5719 5729 5750 5753 5753 5751 5749 5747 5746 5744 5741 5738 5735 5731 5727 5723 5720 5718 5716 5714 5712 5711 5710 5709 5709 5708 5707 5706 5706 5706 5707 5706 5705 5705 5704 5703 5702 5701 5700 5699 5698 5698
5746 5739 5726 5710 5709 5698 5697 5717 5754 5755 5758 5755 5753 5752 5749 5746 5744 5742 5739 5736 5733 5729 5724 5720 5718 5716 5714 5712 5711 5710 5709 5709 5708 5707 5706 5706 5706 5706 5705 5704 5703 5702 5701 5700 5698 5697 5696 5695 5695
5753 5741 5726 5716 5711 5704 5701 5721 5768 5763 5762 5759 5755 5754 5752 5749 5746 5743 5739 5736 5732 5729 5725 5722 5719 5717 5715 5713 5711 5710 5709 5708 5707 5706 5705 5705 5705 5705 5704 5703 5702 5701 5700 5698 5696 5695 5694 5692 5691